Theta_e
318 317 317 318 318 319 321 323 325 328 334 339 353 353 352 353 352 352 352 352 351 353 357 356 351 353 352 352 351 349 351 351 351 352 352 352 353 349 347 344 344 348 355 360
318 317 319 319 318 318 334 341 341 343 339 351 348 346 345 344 345 346 346 345 345 346 350 350 352 353 353 353 352 351 352 352 353 353 353 354 354 353 350 351 350 352 357 361
319 319 320 318 326 337 339 338 339 344 346 346 345 343 341 341 341 342 343 343 343 343 344 347 349 349 350 353 353 354 354 354 354 354 353 353 354 356 354 355 356 355 358 362
318 320 317 331 335 338 341 340 339 340 343 345 342 340 338 337 339 339 339 339 339 340 342 344 344 348 350 348 353 354 354 355 355 355 355 355 356 357 355 357 359 359 360 362
318 317 316 322 331 334 337 338 339 340 341 343 341 342 339 334 335 335 335 334 335 336 339 340 341 343 349 352 351 354 355 356 356 356 357 357 358 358 355 359 361 361 361 363
316 316 314 323 329 329 330 340 334 338 342 342 343 349 341 333 333 333 332 332 332 335 336 338 339 340 343 354 352 353 354 356 357 358 358 359 359 359 359 360 360 360 362 363
315 317 316 326 327 329 340 339 331 333 339 340 344 341 333 330 331 332 333 332 332 333 335 334 333 337 342 341 341 343 347 352 357 359 359 360 360 361 361 361 360 362 363 364
314 316 316 323 327 334 327 327 329 329 335 336 333 330 328 327 327 328 330 331 332 332 331 331 331 335 339 338 338 346 349 350 354 357 358 358 360 361 361 362 362 363 363 362
315 319 323 320 319 315 316 323 326 327 329 333 332 330 328 326 327 327 327 329 331 332 332 330 329 333 338 336 339 341 350 352 353 356 357 358 360 361 361 362 361 362 362 357
320 321 321 317 314 312 312 320 322 325 330 332 332 329 327 327 326 324 324 326 327 329 331 330 327 328 329 332 333 338 342 345 343 344 343 356 359 360 360 361 361 361 360 358
316 318 318 317 315 311 312 317 321 324 329 329 329 328 326 323 323 322 321 322 324 325 327 328 328 328 326 328 332 341 342 338 337 339 340 341 346 357 360 361 361 361 360 359
318 313 312 316 312 311 313 318 319 322 327 328 325 323 320 318 316 318 317 317 319 321 323 324 328 329 331 333 335 337 342 341 341 339 342 338 335 346 356 360 360 361 361 360
313 309 311 310 310 311 316 316 318 321 325 325 322 320 319 318 316 315 315 316 316 317 317 320 325 327 327 334 336 338 339 342 344 338 331 334 335 338 341 346 358 359 360 360
310 310 311 311 315 312 313 315 319 322 323 324 322 320 319 317 315 313 314 313 315 316 316 317 322 324 325 327 332 333 336 337 341 345 346 332 336 350 347 345 345 355 355 355
309 309 310 309 310 313 314 317 319 322 321 320 318 317 316 315 313 311 312 314 316 316 315 317 319 321 323 326 330 330 333 333 338 342 343 345 348 350 350 345 340 338 347 350
307 307 309 310 311 314 313 316 318 319 320 319 317 315 312 311 310 312 312 314 315 315 316 316 318 319 320 324 327 329 331 332 336 338 340 343 344 344 344 343 342 342 339 330
308 309 311 312 314 313 314 314 317 319 319 317 315 312 310 310 311 313 313 313 314 315 315 315 317 318 321 321 324 324 325 328 331 333 335 335 335 335 337 338 339 337 334 334
308 309 310 310 311 312 313 314 316 318 317 315 310 309 309 308 311 312 312 312 315 316 314 314 315 317 320 320 320 321 321 323 324 325 326 327 326 328 328 328 329 328 329 332
307 308 308 309 309 310 312 314 315 314 314 310 307 307 306 307 308 310 311 312 312 314 313 314 314 316 318 317 317 316 317 317 318 318 317 317 317 316 317 318 319 321 324 327
307 308 308 308 310 311 312 312 312 312 309 306 305 305 305 305 307 310 310 309 309 310 312 313 313 314 315 316 316 314 313 312 312 312 311 311 310 310 310 310 311 312 313 315
307 307 307 308 308 308 309 309 307 306 306 304 303 304 304 303 304 309 311 309 308 311 310 310 310 312 312 314 316 314 311 309 308 307 306 305 305 304 305 305 305 306 307 309
307 307 306 307 307 307 307 306 306 305 304 304 303 303 304 305 305 304 305 307 308 309 308 307 308 310 310 312 314 313 310 307 305 304 303 302 302 301 300 301 301 303 304 304
307 307 307 306 306 306 306 306 305 305 307 306 305 305 305 304 303 304 306 305 308 307 306 305 307 308 308 308 307 308 308 307 303 301 300 300 300 299 298 298 298 298 299 302
307 308 307 306 305 305 306 306 305 304 305 305 305 305 305 304 303 304 304 304 306 306 305 304 304 304 304 304 303 302 301 302 302 302 297 296 296 296 296 297 296 295 295 296
308 307 307 308 308 306 305 305 305 305 306 305 305 305 305 304 304 304 304 304 304 304 305 304 304 304 305 304 303 303 302 300 299 299 298 298 297 296 295 295 295 295 295 296
305 305 306 307 308 308 307 307 307 306 306 306 306 305 305 304 303 303 303 302 303 305 305 305 305 305 305 304 303 303 303 303 302 301 300 298 297 296 297 297 296 296 296 297
304 304 305 304 305 306 308 307 308 307 306 306 305 304 304 303 303 303 303 303 303 303 303 303 303 303 304 304 304 303 303 302 302 302 302 301 300 300 299 298 298 297 298 297
Wind_Speed
1 2 3 5 7 6 5 3 5 3 6 8 5 7 9 9 10 12 13 13 12 10 7 3 8 14 18 20 22 25 25 28 31 29 27 25 22 23 22 22 19 16 14 12
2 2 4 7 9 8 3 2 5 6 5 7 7 7 10 10 10 11 12 11 10 10 9 9 8 3 13 17 19 22 23 26 24 24 23 24 20 19 19 18 17 15 15 13
3 4 6 8 4 4 2 2 1 4 4 9 5 8 9 9 10 9 10 10 10 9 8 9 7 5 4 14 16 19 20 20 21 21 22 23 22 19 18 17 15 16 16 14
3 4 9 4 5 4 3 3 1 5 3 6 8 6 7 8 8 8 9 10 9 10 9 8 9 7 6 8 19 18 19 20 18 19 20 20 19 20 19 17 17 16 16 16
4 8 4 6 0 0 1 3 5 7 4 2 8 1 7 8 7 7 7 8 10 10 9 8 13 14 9 9 12 16 19 19 19 19 19 20 21 22 21 18 16 16 16 16
3 6 7 3 4 2 2 5 7 8 7 5 2 3 2 7 6 6 7 9 11 11 9 6 14 14 12 0 11 12 14 16 15 17 19 20 21 21 20 19 17 15 14 14
9 7 3 5 8 2 6 3 10 10 8 3 6 4 4 6 6 6 6 7 8 10 11 13 15 12 11 10 11 4 2 4 9 13 16 17 16 15 16 15 14 16 16 15
6 9 13 10 2 3 4 7 7 9 4 10 9 5 4 5 7 9 9 10 10 11 12 13 12 8 12 13 8 6 6 4 4 8 13 13 15 14 15 15 16 17 17 16
4 1 4 5 5 7 8 7 5 7 10 7 7 4 3 4 7 8 9 9 9 10 13 14 14 11 3 9 7 6 10 10 16 3 9 13 13 16 16 18 20 20 18 15
4 3 4 2 3 7 11 10 8 8 4 4 9 6 4 5 4 7 9 9 9 12 13 14 14 12 6 8 7 1 3 12 15 15 25 14 16 15 18 19 20 20 18 19
7 9 4 6 4 10 13 12 8 9 3 5 6 10 8 5 5 6 9 10 9 14 15 13 13 14 13 14 14 4 17 17 19 8 11 28 31 17 20 19 22 22 22 21
4 2 1 4 7 11 10 12 11 9 4 9 8 7 11 6 6 4 7 9 15 15 14 17 18 21 26 25 24 18 14 26 21 8 11 27 30 23 26 21 22 22 20 19
3 3 5 9 10 11 9 9 12 10 7 9 11 10 10 6 9 8 13 16 16 14 15 16 18 17 21 25 26 26 24 15 11 12 20 20 37 30 16 6 15 18 17 21
6 5 8 8 3 5 8 11 12 8 4 8 10 7 5 6 6 11 12 11 11 12 16 18 17 20 17 16 18 16 11 11 7 5 9 8 46 38 21 12 15 8 6 14
7 8 12 9 8 5 5 7 8 7 3 7 8 3 3 7 10 9 8 9 9 13 16 17 18 18 19 16 13 12 11 12 7 2 3 4 4 2 9 14 13 18 19 12
7 7 8 8 8 1 2 4 1 5 8 3 4 4 6 6 8 9 9 9 11 11 11 11 12 14 14 16 14 10 11 14 9 8 9 9 10 9 8 8 8 9 13 22
5 4 8 8 5 3 2 3 4 2 3 4 3 4 5 5 8 10 11 13 15 17 19 19 17 15 16 16 15 13 9 9 10 10 12 12 12 11 10 8 7 8 7 6
1 1 1 2 1 1 1 3 5 2 2 5 7 7 8 8 7 7 9 12 13 15 18 18 18 15 16 14 12 11 10 11 10 12 11 13 12 12 12 12 13 12 10 6
6 4 3 1 3 4 4 4 2 3 3 7 8 8 8 8 7 7 8 10 13 14 18 18 18 16 15 16 11 11 12 15 16 17 16 17 19 17 16 16 15 14 12 13
9 9 7 2 2 1 2 2 4 5 7 10 9 10 10 9 7 8 9 11 10 9 12 15 15 16 14 15 15 14 19 19 19 21 22 22 20 20 19 19 16 17 17 18
11 11 12 10 9 8 6 8 13 13 11 16 16 10 10 12 12 7 8 10 11 13 13 17 18 15 15 15 18 18 19 23 23 21 20 20 19 22 22 18 19 20 21 20
10 12 10 13 14 16 15 19 19 16 17 12 9 10 13 13 13 15 10 8 9 14 15 16 16 17 17 17 16 19 19 22 25 26 26 24 22 20 21 24 24 26 25 25
5 9 13 14 14 16 19 19 21 20 17 14 11 9 9 10 11 12 10 9 8 14 16 17 18 19 20 18 18 20 17 19 23 25 27 27 26 28 27 30 28 26 26 28
5 7 11 11 10 15 13 15 15 16 16 14 15 9 7 10 10 10 8 9 10 13 15 16 20 22 21 20 20 21 20 18 18 19 26 30 27 27 27 30 31 32 31 31
5 8 10 11 10 9 12 12 13 13 10 10 11 10 10 8 7 7 9 9 9 9 9 12 15 17 18 18 19 19 19 19 19 19 18 20 24 28 26 26 23 26 28 31
4 7 9 11 8 9 10 9 9 9 9 7 5 4 4 6 5 4 6 9 10 10 9 8 9 11 13 14 15 15 15 16 17 17 18 19 21 24 20 21 23 24 21 19
7 9 10 10 7 10 10 12 10 9 10 9 7 6 5 3 3 3 5 8 8 10 10 10 11 11 8 8 9 11 12 12 13 14 14 14 14 15 15 18 20 18 16 16
Wind_Direction
306 311 315 292 294 308 306 296 265 9 307 346 18 41 41 47 49 47 48 47 45 48 50 63 217 216 214 216 211 204 203 205 211 216 220 224 226 226 227 229 231 233 229 223
275 327 294 278 280 281 240 221 273 302 279 42 35 46 49 36 37 40 39 34 24 24 28 26 26 326 230 219 210 209 208 214 214 209 212 218 223 221 222 225 221 217 222 220
254 333 300 249 263 265 195 127 281 276 10 324 53 43 37 36 35 31 23 16 16 11 7 3 359 343 269 222 210 216 215 217 213 206 208 215 219 216 217 221 215 214 215 216
270 291 246 96 58 57 213 115 55 268 299 109 100 76 46 35 34 26 14 4 359 353 345 345 347 343 274 237 213 207 221 216 206 204 208 213 214 216 218 220 216 211 210 210
239 230 298 214 197 21 315 207 331 301 257 155 165 282 54 16 31 29 8 358 345 343 331 317 349 342 324 242 229 200 219 219 207 199 205 208 211 214 217 214 216 214 211 204
178 235 234 88 90 22 196 235 12 325 289 211 191 223 24 347 6 28 19 5 356 1 2 348 350 349 2 281 201 206 216 229 224 208 202 209 214 211 214 214 214 214 213 204
216 238 248 13 326 221 198 66 331 324 298 236 141 60 31 351 2 31 40 19 27 26 17 2 352 349 15 34 34 31 333 277 220 229 220 217 219 214 212 210 211 206 206 199
217 232 238 3 226 263 358 322 335 325 338 98 98 103 59 30 14 10 20 23 30 43 27 10 2 349 37 23 7 48 71 323 239 221 236 223 218 215 210 200 201 202 199 191
245 17 35 23 39 353 330 311 316 323 316 115 116 94 47 9 16 15 1 7 30 42 52 30 14 22 244 335 358 36 73 52 38 325 261 252 226 215 208 207 198 198 194 185
300 179 222 59 33 2 342 319 340 320 244 129 126 106 45 11 1 355 356 355 5 30 41 43 27 30 14 329 310 192 139 49 18 11 8 343 283 246 222 212 209 201 192 188
256 254 304 215 360 357 334 321 356 340 249 116 106 100 88 28 13 353 355 350 19 25 7 15 40 28 7 1 3 256 73 61 10 305 349 346 329 276 246 217 209 204 198 193
227 144 209 283 325 340 326 320 344 324 271 91 77 79 83 45 7 25 21 6 28 22 7 2 7 18 16 17 17 11 30 33 16 358 346 328 340 288 246 220 206 206 206 198
219 159 254 282 299 304 308 317 321 304 257 121 89 69 55 46 12 26 29 19 29 10 355 11 3 19 19 21 24 22 15 345 354 48 35 349 306 306 233 158 195 201 205 214
249 276 269 214 205 322 311 324 328 341 1 76 81 75 93 77 33 25 33 29 11 14 15 16 10 358 13 29 34 26 17 333 311 259 190 352 267 230 208 146 126 150 233 220
252 250 257 270 287 285 307 333 2 345 138 108 84 44 14 54 53 24 18 28 37 19 17 18 19 355 360 12 24 32 20 355 322 291 148 207 310 28 141 152 149 136 138 140
288 265 261 242 261 276 271 287 323 346 4 78 125 117 66 36 38 37 29 25 46 31 25 19 21 1 7 8 11 12 22 15 22 26 46 54 60 53 76 126 135 122 112 125
280 245 220 243 224 217 258 321 309 300 12 138 130 98 73 48 45 33 16 13 23 23 17 16 9 12 19 12 14 1 13 36 35 39 40 46 59 64 58 50 56 66 71 133
264 6 350 106 187 235 290 309 308 327 105 131 116 105 87 63 47 52 24 13 19 27 24 13 10 19 21 18 20 21 20 49 57 58 58 64 60 57 58 64 62 57 48 32
61 50 10 308 243 254 273 284 327 36 86 130 109 92 82 70 62 56 46 39 30 20 10 13 18 28 25 23 33 48 51 56 63 63 63 68 68 63 70 69 73 76 78 89
70 59 69 72 29 45 119 67 74 83 91 100 94 84 71 63 63 74 67 53 29 10 8 23 28 30 30 29 42 46 65 63 59 54 56 62 63 65 64 67 72 75 73 72
77 62 54 59 90 73 83 91 94 80 82 82 82 78 74 67 69 80 76 63 25 44 34 31 33 33 36 41 45 48 55 67 65 61 62 57 55 57 64 58 62 66 70 75
89 75 68 63 69 70 77 84 88 90 85 90 103 84 62 58 63 63 63 55 36 56 46 39 39 48 52 56 61 60 52 62 68 70 67 64 63 58 58 61 52 57 67 71
119 96 88 88 77 69 68 73 76 69 69 56 67 64 68 51 41 47 54 52 57 66 59 55 63 62 56 54 57 64 61 60 68 72 75 75 69 69 66 68 68 65 61 67
160 126 122 112 110 100 83 69 81 77 65 52 64 59 73 80 71 58 60 69 86 79 75 68 69 66 63 60 58 60 61 63 66 68 74 79 76 78 73 75 76 77 76 75
196 176 172 160 135 126 137 122 109 103 108 98 63 37 33 40 73 77 77 75 71 76 73 72 69 64 64 63 64 64 65 67 71 74 76 78 83 83 81 82 79 75 77 75
126 133 159 183 180 167 154 148 156 153 145 144 65 46 60 23 17 48 89 87 75 65 63 61 56 60 60 61 63 65 69 71 73 77 82 81 83 84 81 79 75 74 74 73
116 119 120 115 128 176 178 174 174 170 171 145 88 74 60 50 17 28 110 105 88 80 70 62 55 49 43 47 60 62 67 70 76 78 79 79 79 80 78 76 78 80 74 69